Guest (not logged in) | Log in

Project information

Duration: 2010-01-22 10:00 onwards
Historical data from: 1995-01-01
Position: 57� 4' 3.30" N
8� 52' 56.00" E
0 m A.S.L
Show in the map
Contact: Michael S. Courtney
Description: Lidar measurements of wind resources at new test center for large wind turbines. Location at Østerild, Denmark

Measurements

NameHeight [m]DurationLatest (2012-01-18 11:30)
windcube_wls70_8_IntTemp 0.00 2010-01-28 11:33 onwards -
windcube_wls70_8_ExtTemp 0.00 2010-01-28 11:33 onwards -
windcube_wls70_8_Pressure 0.00 2010-01-28 11:33 onwards -
windcube_wls70_8_Humidity 0.00 2010-01-28 11:33 onwards -
windcube_wls70_8_Wipercount 0.00 2010-01-28 11:33 onwards -
windcube_wls70_8_Pitch 0.00 2010-01-28 11:33 onwards -
windcube_wls70_8_Roll 0.00 2010-01-28 11:33 onwards -
windcube_wls70_8_Declination 0.00 2010-01-28 11:33 onwards -
windcube_unit62_U_45 45.00 2010-01-28 11:33 onwards -
windcube_unit62_U_60 60.00 2010-01-28 11:33 onwards -
windcube_unit62_U_80 80.00 2010-01-28 11:33 onwards -
windcube_unit62_U_100 100.00 2010-01-28 11:33 onwards -
windcube_unit62_U_120 120.00 2010-01-28 11:33 onwards -
windcube_unit62_U_140 140.00 2010-01-28 11:33 onwards -
windcube_unit62_U_170 170.00 2010-01-28 11:33 onwards -
windcube_unit62_U_200 200.00 2010-01-28 11:33 onwards -
windcube_unit62_U_250 250.00 2010-01-28 11:33 onwards -
windcube_unit62_U_300 300.00 2010-01-28 11:33 onwards -
windcube_unit62_Dir_45 45.00 2010-01-28 11:33 onwards -
windcube_unit62_Dir_60 60.00 2010-01-28 11:33 onwards -
windcube_unit62_Dir_80 80.00 2010-01-28 11:33 onwards -
windcube_unit62_Dir_100 100.00 2010-01-28 11:33 onwards -
windcube_unit62_Dir_120 120.00 2010-01-28 11:33 onwards -
windcube_unit62_Dir_140 140.00 2010-01-28 11:33 onwards -
windcube_unit62_Dir_170 170.00 2010-01-28 11:33 onwards -
windcube_unit62_Dir_200 200.00 2010-01-28 11:33 onwards -
windcube_unit62_Dir_250 250.00 2010-01-28 11:33 onwards -
windcube_unit62_Dir_300 300.00 2010-01-28 11:33 onwards -
windcube_unit62_W_45 45.00 2010-01-28 11:33 onwards -
windcube_unit62_W_60 60.00 2010-01-28 11:33 onwards -
windcube_unit62_W_80 80.00 2010-01-28 11:33 onwards -
windcube_unit62_W_100 100.00 2010-01-28 11:33 onwards -
windcube_unit62_W_120 120.00 2010-01-28 11:33 onwards -
windcube_unit62_W_140 140.00 2010-01-28 11:33 onwards -
windcube_unit62_W_170 170.00 2010-01-28 11:33 onwards -
windcube_unit62_W_200 200.00 2010-01-28 11:33 onwards -
windcube_unit62_W_250 250.00 2010-01-28 11:33 onwards -
windcube_unit62_W_300 300.00 2010-01-28 11:33 onwards -
windcube_unit62_CNR_45 45.00 2010-01-28 11:33 onwards -
windcube_unit62_CNR_60 60.00 2010-01-28 11:33 onwards -
windcube_unit62_CNR_80 80.00 2010-01-28 11:33 onwards -
windcube_unit62_CNR_100 100.00 2010-01-28 11:33 onwards -
windcube_unit62_CNR_120 120.00 2010-01-28 11:33 onwards -
windcube_unit62_CNR_140 140.00 2010-01-28 11:33 onwards -
windcube_unit62_CNR_170 170.00 2010-01-28 11:33 onwards -
windcube_unit62_CNR_200 200.00 2010-01-28 11:33 onwards -
windcube_unit62_CNR_250 250.00 2010-01-28 11:33 onwards -
windcube_unit62_CNR_300 300.00 2010-01-28 11:33 onwards -
windcube_unit62_Vdismin_45 45.00 2010-01-28 11:33 onwards -
windcube_unit62_Vdismin_60 60.00 2010-01-28 11:33 onwards -
windcube_unit62_Vdismin_80 80.00 2010-01-28 11:33 onwards -
windcube_unit62_Vdismin_100 100.00 2010-01-28 11:33 onwards -
windcube_unit62_Vdismin_120 120.00 2010-01-28 11:33 onwards -
windcube_unit62_Vdismin_140 140.00 2010-01-28 11:33 onwards -
windcube_unit62_Vdismin_170 170.00 2010-01-28 11:33 onwards -
windcube_unit62_Vdismin_200 200.00 2010-01-28 11:33 onwards -
windcube_unit62_Vdismin_250 250.00 2010-01-28 11:33 onwards -
windcube_unit62_Vdismin_300 300.00 2010-01-28 11:33 onwards -
windcube_unit62_Vdismax_45 45.00 2010-01-28 11:33 onwards -
windcube_unit62_Vdismax_60 60.00 2010-01-28 11:33 onwards -
Comments and help requests to webmaster
2024